sat.trackr.live / text

‹ back to catalog

STARLINK-11108 [DTC]

NORAD 59712 · 2024-088E

PAYLOAD ACTIVE UNKNOWN

§ Identity

Operator
Country
US
Launch date
2024-05-10
Launch site
AFWTR
Launch vehicle
Mass (kg)
RCS (m²)

Purposes: comms

External: N2YO · Heavens-Above · Gunter

§ Orbital elements

Epoch: 2026-09-21T21:00:58.716576Z

Period
91.74 min
Inclination
53.1588°
Eccentricity
0.0000746
Mean motion
15.69727022 rev/d
Perigee alt
359.2 km
Apogee alt
360.2 km
Semi-major
6,737.8 km
B*
-1.8650e-5
RAAN
79.2781°
Arg perigee
89.4798°
Mean anomaly
270.6306°
Rev number
13,708

§ Raw data

STARLINK-11108 [DTC]1 59712U 24088E   26264.87567959 -.00002848  00000+0 -18650-4 0  99992 59712  53.1588  79.2781 0000746  89.4798 270.6306 15.69727022137086

JSON: /api/v1/satellites/59712 · /tle

For live sub-satellite position, see the globe view (requires WebGL).

§ Visibility from observer

Set your observer location to see the next 7 days of passes ≥ 10°. The values pass through the URL so the page stays shareable.

No JS? Fill the form by hand. The geolocation button needs JavaScript.